Location: Plymouth
(43.7490°N, 87.9770°W)
Time: 22:04:55
(UTC-05:00)

Daily predictions for brighter satellites

Satellite Brightness Start Highest point End
(mag) Time Altitude Azimuth Time Altitude Azimuth Time Altitude Azimuth
SL-8 Rocket 4.0 18:17:42 10° S 18:23:53 85° E 18:30:10 10° N
ALOS 3.3 18:22:14 10° ESE 18:26:04 26° ENE 18:29:53 10° NNE
Cosmos 1726 4.0 18:26:49 10° ESE 18:28:00 11° E 18:29:10 10° ENE
Meteor 1-28 Rocket 3.2 18:28:03 10° NNE 18:31:51 69° ESE 18:35:35 10° S
Cosmos 1484 Rocket 3.1 18:28:59 10° S 18:32:41 68° W 18:36:24 10° NNW
Lacrosse 5 rocket 3.6 18:30:29 10° WNW 18:33:40 19° NNW 18:36:44 10° NNE
SL-24 R/B - RUBIN 2 3.7 18:29:57 10° NNW 18:34:54 78° NE 18:39:21 10° SE
RESURS DK-1 2.3 18:33:07 10° NNW 18:37:16 77° ENE 18:41:23 10° SSE
Cosmos 1703 3.2 18:35:00 10° N 18:38:56 66° E 18:42:48 10° SSE
Cosmos 2151 2.9 18:35:13 10° N 18:39:30 66° E 18:43:43 10° SSE
SL-16 R/B 3.8 18:34:39 10° NW 18:39:57 41° WSW 18:45:12 10° S
METEOR-M 4.2 18:35:10 10° SSE 18:40:25 60° ENE 18:45:42 10° N
Cosmos-2242 4.2 18:36:45 10° SSW 18:40:51 46° WNW 18:44:58 10° N
NOAA 12 4.5 18:37:16 10° SE 18:42:13 42° ENE 18:47:13 10° N
MONITOR-E 4.4 18:39:20 10° SSE 18:42:18 46° ENE 18:45:17 10° N
YAOGAN 1 2.5 18:38:19 10° SSE 18:42:39 86° ENE 18:47:00 10° NNW
NOSS 3 (A) 4.4 18:40:35 10° SW 18:43:20 87° SE 18:46:31 10° NE
DELTA 2 R/B (1) 4.3 18:38:42 10° W 18:44:04 49° SSW 18:49:27 10° ESE
Aureole 1 Rocket 4.4 18:39:29 10° SW 18:45:37 54° WNW 18:50:16 10° N
Atlas Centaur 2 4.0 18:43:28 10° SW 18:45:55 14° S 18:48:39 10° SSE
BREEZE-M DEB (TANK) 3.7 18:45:07 10° WNW 18:48:58 78° NNE 19:04:00 10° ESE
Gbstr 26 Del rocket 3.7 18:44:17 10° NW 18:49:01 55° NNE 18:54:25 12° ESE
Cosmos 2237 4.2 18:43:34 10° NNW 18:49:18 67° ENE 18:54:59 10° SE
Cosmos 1908 3.6 18:45:41 10° SSE 18:49:23 43° E 18:53:07 10° NNE
GENESIS II 4.2 18:45:41 10° SSW 18:49:39 83° ESE 18:53:38 10° NE
Cosmos 2058 2.9 18:47:45 10° N 18:51:58 90° E 18:56:07 10° S
Cosmos 2218 Rocket 4.3 18:45:52 10° SSW 18:52:00 71° W 18:58:09 10° N
Abrixas rocket 3.3 18:49:49 10° WNW 18:52:53 35° N 18:55:19 14° ENE
GRACE-2 3.8 18:50:46 10° SSE 18:53:14 47° E 18:55:45 10° N
Cosmos 1420 Rocket 4.0 18:48:45 10° NNW 18:54:04 66° ENE 18:59:19 10° SSE
APEX 3.4 18:52:29 10° S 18:55:21 31° ESE 18:57:11 16° NE
Cosmos 44 3.5 18:52:18 10° S 18:56:20 38° ESE 19:00:11 11° NE
Cosmos 2237 Rocket 3.5 18:52:06 10° N 18:56:23 21° NE 18:59:13 15° E
Cosmos 158 Rocket 4.1 18:51:53 10° S 18:56:44 49° ESE 19:01:44 10° NNE
GRACE-1 3.6 18:54:42 10° SSE 18:57:16 59° E 18:59:49 10° N
Cosmos 1626 3.1 18:54:35 10° NNW 18:58:14 51° W 19:01:52 10° S
H-2A R/B 3.9 18:55:53 10° ESE 18:59:01 24° ENE 19:02:11 10° NNE
Cosmos 1727 Rocket 4.2 18:53:12 10° N 18:59:35 81° W 19:05:55 10° S
Cosmos 1400 Rocket 3.9 18:58:42 10° NNW 19:02:36 48° W 19:06:25 10° S
GP-B 3.5 18:58:55 10° N 19:03:20 67° W 19:07:44 10° SSW
Aureole 2 4.2 19:00:37 10° NNW 19:03:42 86° WSW 19:07:10 10° SSE
Thor Agena Rocket 4.1 19:01:02 10° NNE 19:05:39 34° E 19:10:13 10° SSE
Cosmos 2227 Rocket 3.8 19:02:57 10° SE 19:04:49 14° ESE 19:04:49 14° ESE
BREEZE-M DEB (TANK) 1.1 19:04:33 10° SW 19:06:33 55° SSE 19:07:22 30° E
SKYMED 2 3.5 19:02:37 10° NNE 19:06:59 89° ESE 19:11:20 10° SSW
SL-16 R/B 4.0 19:04:37 10° NNE 19:07:05 13° NE 19:08:16 12° NE
Cosmos 2221 2.4 19:08:29 10° S 19:12:46 69° E 19:17:07 10° NNE
SL-8 R/B 3.8 19:09:23 10° WSW 19:14:11 74° NNW 19:17:29 20° ENE
Cosmos 2123 Rocket 4.4 19:10:05 10° N 19:15:54 39° ENE 19:21:41 10° SE
Cosmos 921 Rocket 3.6 19:14:02 10° NNW 19:18:27 61° WSW 19:22:44 10° S
Cosmos 2360 Rocket 3.2 19:13:11 10° NW 19:18:37 49° WSW 19:24:02 10° S
Cosmos 1300 3.4 19:15:38 10° SSE 19:18:59 29° E 19:20:01 25° ENE
FREGAT/IRIS 3.1 19:19:25 37° E 19:19:32 37° ENE 19:22:20 10° N
CZ-4 R/B 4.0 19:16:24 10° SSW 19:19:54 25° W 19:23:23 10° NW
Cosmos 1980 4.5 19:15:33 10° N 19:20:35 32° NE 19:22:47 24° E
Cosmos 2084 4.0 19:18:23 10° NNW 19:21:51 32° NE 19:22:36 30° ENE
Cosmos 44 Rocket 3.1 19:19:44 10° SSW 19:24:24 70° ESE 19:28:13 15° NE
COSMOS 2428 2.6 19:20:08 10° NNW 19:25:52 87° ENE 19:31:33 10° SSE
Abrixas 3.8 19:26:26 10° SSW 19:27:26 20° SSW 19:27:26 20° SSW
Cosmos 2333 Rocket 2.4 19:23:21 10° NNW 19:28:57 50° ENE 19:32:29 22° SE
USA 267 4.1 19:28:51 24° E 19:30:36 27° SE 19:35:58 10° S
Cosmos 2219 3.1 19:27:40 10° SSW 19:33:22 69° ESE 19:39:05 10° NNE
CZ-4C R/B 2.0 19:32:13 10° SSW 19:37:22 70° ESE 19:41:54 17° NE
Cosmos 1269 Rocket 3.9 19:34:06 10° SSW 19:39:22 84° ESE 19:44:41 10° NNE
FENGYUN 3A 3.9 19:34:38 10° S 19:40:00 70° WSW 19:45:26 10° NNW
Cosmos 2297 Rocket 3.9 19:38:44 10° SSE 19:39:56 15° SSE 19:39:56 15° SSE
Resurs 01 Rocket 2.9 19:47:33 25° NNE 19:47:33 25° NNE 19:49:56 10° N
NOSS 0 Rocket 3.8 19:45:31 10° NNW 19:51:41 69° ENE 19:54:41 32° SE
FengYun 1-2 T 4.1 19:46:26 10° SSE 19:51:56 89° ENE 19:57:27 10° NNW
Aureole 2 Rocket 2.8 19:48:29 10° NNW 19:52:24 77° WSW 19:54:01 35° S
Sich 1 3.0 19:53:19 10° N 19:57:43 84° W 20:00:48 19° S
Cosmos 2098 Rocket 4.0 19:55:36 10° SSW 20:00:08 60° WNW 20:05:58 10° N
Spot 2 Rocket 4.2 20:03:31 37° NE 20:03:31 37° NE 20:07:09 10° N
Meteor 2-10 3.8 19:57:33 10° S 20:02:35 87° E 20:07:44 10° N
Cosmos 1726 3.1 19:59:15 10° SSW 20:02:49 46° WNW 20:06:24 10° N
ALOS 3.8 19:59:02 10° SSW 20:03:20 36° W 20:07:38 10° NNW
Cosmos 2219 Rocket 2.3 20:01:06 10° NNW 20:06:42 73° WSW 20:10:06 24° SSE
USA 234 4.1 20:05:13 30° NE 20:07:07 35° NNE 20:12:56 10° NW
USA 32 4.1 20:04:01 10° N 20:08:37 55° NE 20:08:37 55° NE
Cosmos 494 Rocket 4.1 20:04:23 10° S 20:08:27 52° SSE 20:08:27 52° SSE
Cosmos 1110 Rocket 3.9 20:05:25 10° NNW 20:10:46 90° WSW 20:12:12 50° SSE
SJ-6B 3.1 20:11:22 61° W 20:11:22 61° W 20:14:56 10° NNW
Lacrosse 5 rocket 3.8 20:12:07 10° NNW 20:14:20 14° N 20:14:21 14° N
MOS 1-B Rocket 3.7 20:12:48 46° SSE 20:14:37 77° ENE 20:20:48 10° NNW
Cosmos 1666 Rocket 4.3 20:14:08 10° NNW 20:18:21 51° W 20:20:41 24° SSW
Cosmos 1633 Rocket 3.7 20:20:31 10° NNW 20:24:50 53° W 20:25:48 44° SW
Gbstr 26 Del rocket 4.4 20:31:01 10° WNW 20:36:08 48° SW 20:37:00 45° SSW
Envisat 3.7 20:38:47 47° NNW 20:38:47 47° NNW 20:42:23 10° NNW
Cosmos 2237 Rocket 2.3 20:35:20 10° NNW 20:41:02 72° WSW 20:41:05 72° WSW
Cosmos 2227 Rocket 3.2 20:43:35 10° SSW 20:46:46 35° SSW 20:46:46 35° SSW
SL-16 R/B 3.3 20:46:46 10° NNW 20:50:09 36° N 20:50:09 36° N
Meteor 2-3 Rocket 4.3 20:52:59 10° NNW 20:57:37 54° NW 20:57:37 54° NW
Cosmos 2333 Rocket 4.1 21:08:14 10° NW 21:12:52 26° WSW 21:14:33 22° SW
USA 267 3.9 21:16:14 47° SW 21:16:14 47° SW 21:20:38 10° SW
ATLAS 5 CENTAUR R/B 4.4 21:10:56 10° NNW 21:12:33 15° N 21:12:33 15° N
Resurs 01 Rocket 4.4 21:25:08 16° NW 21:25:08 16° NW 21:26:14 10° NW
CZ-4C R/B 4.0 21:21:53 10° W 21:26:31 27° NNW 21:27:08 26° NNW
USA 234 4.5 21:52:34 36° NW 21:52:34 36° NW 21:56:09 10° NW
